Time,TemperatureF,DewpointF,PressureIn,WindDirection,WindDirectionDegrees,WindSpeedMPH,WindSpeedGustMPH,Humidity,HourlyPrecipIn,Conditions,Clouds,dailyrainin,SoftwareType,DateUTC
2013-01-07 00:11:00,21.7,21.5,29.82,SE,135,0.0,-999.0,99,-99.99,,,0.00,Acu-Link.com,2013-01-07 05:11:00,
2013-01-07 00:26:00,21.7,21.5,29.82,SW,225,0.0,-999.0,99,-99.99,,,0.00,Acu-Link.com,2013-01-07 05:26:00,
2013-01-07 00:41:00,21.7,21.5,29.82,NE,45,0.0,-999.0,99,-99.99,,,0.00,Acu-Link.com,2013-01-07 05:41:00,
2013-01-07 00:57:00,21.7,21.5,29.84,NNW,337,0.0,-999.0,99,-99.99,,,0.00,Acu-Link.com,2013-01-07 05:57:00,
2013-01-07 01:12:00,21.7,21.5,29.84,NW,315,0.0,-999.0,99,-99.99,,,0.00,Acu-Link.com,2013-01-07 06:12:00,
2013-01-07 01:27:00,21.7,21.5,29.85,WSW,247,0.0,-999.0,99,-99.99,,,0.00,Acu-Link.com,2013-01-07 06:27:00,
2013-01-07 01:42:00,21.7,21.5,29.85,West,270,0.0,-999.0,99,-99.99,,,0.00,Acu-Link.com,2013-01-07 06:42:00,
2013-01-07 01:57:00,21.9,21.7,29.87,West,270,0.0,-999.0,99,-99.99,,,0.00,Acu-Link.com,2013-01-07 06:57:00,
2013-01-07 02:13:00,21.9,21.7,29.87,SW,225,0.0,-999.0,99,-99.99,,,0.00,Acu-Link.com,2013-01-07 07:13:00,
2013-01-07 02:28:00,21.9,21.7,29.88,SW,225,0.0,-999.0,99,-99.99,,,0.00,Acu-Link.com,2013-01-07 07:28:00,
2013-01-07 02:43:00,21.2,21.0,29.89,West,270,0.0,-999.0,99,-99.99,,,0.00,Acu-Link.com,2013-01-07 07:43:00,
2013-01-07 02:58:00,20.5,20.3,29.91,WSW,247,0.0,-999.0,99,-99.99,,,0.00,Acu-Link.com,2013-01-07 07:58:00,
2013-01-07 03:13:00,19.4,19.2,29.92,South,180,0.0,-999.0,99,-99.99,,,0.00,Acu-Link.com,2013-01-07 08:13:00,
2013-01-07 03:29:00,18.5,18.0,29.92,NW,315,0.0,-999.0,98,-99.99,,,0.00,Acu-Link.com,2013-01-07 08:29:00,
2013-01-07 03:44:00,17.6,17.1,29.93,SW,225,0.0,-999.0,98,-99.99,,,0.00,Acu-Link.com,2013-01-07 08:44:00,
2013-01-07 03:59:00,16.9,16.4,29.93,WSW,247,0.0,-999.0,98,-99.99,,,0.00,Acu-Link.com,2013-01-07 08:59:00,
2013-01-07 04:14:00,16.2,15.7,29.93,SW,225,0.0,-999.0,98,-99.99,,,0.00,Acu-Link.com,2013-01-07 09:14:00,
2013-01-07 04:30:00,15.3,14.8,29.96,NNE,22,0.0,-999.0,98,-99.99,,,0.00,Acu-Link.com,2013-01-07 09:30:00,
2013-01-07 04:45:00,14.7,14.2,29.98,SW,225,0.0,-999.0,98,-99.99,,,0.00,Acu-Link.com,2013-01-07 09:45:00,
2013-01-07 05:00:00,14.2,13.7,29.99,WSW,247,0.0,-999.0,98,-99.99,,,0.00,Acu-Link.com,2013-01-07 10:00:00,
2013-01-07 05:15:00,13.5,13.0,30.00,WSW,247,0.0,-999.0,98,-99.99,,,0.00,Acu-Link.com,2013-01-07 10:15:00,
2013-01-07 05:30:00,13.1,12.4,30.01,WSW,247,0.0,-999.0,97,-99.99,,,0.00,Acu-Link.com,2013-01-07 10:30:00,
2013-01-07 05:46:00,12.7,12.0,30.02,NNW,337,0.0,-999.0,97,-99.99,,,0.00,Acu-Link.com,2013-01-07 10:46:00,
2013-01-07 06:01:00,12.2,11.5,30.03,West,270,0.0,-999.0,97,-99.99,,,0.00,Acu-Link.com,2013-01-07 11:01:00,
2013-01-07 06:16:00,11.8,11.1,30.05,WSW,247,0.0,-999.0,97,-99.99,,,0.00,Acu-Link.com,2013-01-07 11:16:00,
2013-01-07 06:31:00,11.3,10.6,30.04,West,270,0.0,-999.0,97,-99.99,,,0.00,Acu-Link.com,2013-01-07 11:31:00,
2013-01-07 06:46:00,11.1,10.2,30.06,SW,225,0.0,-999.0,96,-99.99,,,0.00,Acu-Link.com,2013-01-07 11:46:00,
2013-01-07 07:02:00,10.9,10.0,30.07,West,270,0.0,-999.0,96,-99.99,,,0.00,Acu-Link.com,2013-01-07 12:02:00,
2013-01-07 07:17:00,10.9,10.0,30.08,West,270,0.0,-999.0,96,-99.99,,,0.00,Acu-Link.com,2013-01-07 12:17:00,
2013-01-07 07:32:00,10.6,9.7,30.10,WSW,247,0.0,-999.0,96,-99.99,,,0.00,Acu-Link.com,2013-01-07 12:32:00,
2013-01-07 07:48:00,10.4,9.5,30.11,SW,225,0.0,-999.0,96,-99.99,,,0.00,Acu-Link.com,2013-01-07 12:48:00,
2013-01-07 08:03:00,10.2,9.3,30.12,West,270,0.0,-999.0,96,-99.99,,,0.00,Acu-Link.com,2013-01-07 13:03:00,
2013-01-07 08:18:00,10.0,9.1,30.14,SW,225,0.0,-999.0,96,-99.99,,,0.00,Acu-Link.com,2013-01-07 13:18:00,
2013-01-07 08:33:00,10.0,8.6,30.14,West,270,0.0,-999.0,94,-99.99,,,0.00,Acu-Link.com,2013-01-07 13:33:00,
2013-01-07 08:48:00,9.9,8.3,30.15,West,270,0.0,-999.0,93,-99.99,,,0.00,Acu-Link.com,2013-01-07 13:48:00,
2013-01-07 09:04:00,9.9,8.1,30.16,SW,225,0.0,-999.0,92,-99.99,,,0.00,Acu-Link.com,2013-01-07 14:04:00,
2013-01-07 09:19:00,10.0,7.9,30.17,West,270,0.0,-999.0,91,-99.99,,,0.00,Acu-Link.com,2013-01-07 14:19:00,
2013-01-07 09:34:00,9.9,7.6,30.17,SW,225,0.0,-999.0,90,-99.99,,,0.00,Acu-Link.com,2013-01-07 14:34:00,
2013-01-07 09:50:00,10.9,8.1,30.17,SW,225,0.0,-999.0,88,-99.99,,,0.00,Acu-Link.com,2013-01-07 14:50:00,
2013-01-07 10:05:00,11.3,7.9,30.18,West,270,0.0,-999.0,86,-99.99,,,0.00,Acu-Link.com,2013-01-07 15:05:00,
2013-01-07 10:20:00,11.1,8.3,30.19,WSW,247,0.0,-999.0,88,-99.99,,,0.00,Acu-Link.com,2013-01-07 15:20:00,
2013-01-07 10:35:00,10.6,8.0,30.18,WSW,247,0.0,-999.0,89,-99.99,,,0.00,Acu-Link.com,2013-01-07 15:35:00,
2013-01-07 10:50:00,10.8,8.0,30.18,NW,315,0.0,-999.0,88,-99.99,,,0.00,Acu-Link.com,2013-01-07 15:50:00,
2013-01-07 11:06:00,13.1,9.2,30.18,SW,225,0.0,-999.0,84,-99.99,,,0.00,Acu-Link.com,2013-01-07 16:06:00,
2013-01-07 11:27:00,14.7,9.9,30.19,NW,315,0.0,-999.0,81,-99.99,,,0.00,Acu-Link.com,2013-01-07 16:27:00,
2013-01-07 12:35:00,14.0,9.8,30.19,WSW,247,0.0,-999.0,83,-99.99,,,0.00,Acu-Link.com,2013-01-07 17:35:00,
2013-01-07 13:22:00,14.2,9.2,30.19,NW,315,0.0,-999.0,80,-99.99,,,0.00,Acu-Link.com,2013-01-07 18:22:00,
2013-01-07 14:04:00,13.1,8.7,30.21,WSW,247,0.0,-999.0,82,-99.99,,,0.00,Acu-Link.com,2013-01-07 19:04:00,
2013-01-07 14:20:00,13.6,9.7,30.19,West,270,0.0,-999.0,84,-99.99,,,0.00,Acu-Link.com,2013-01-07 19:20:00,
2013-01-07 14:38:00,14.0,9.5,30.20,SW,225,0.0,-999.0,82,-99.99,,,0.00,Acu-Link.com,2013-01-07 19:38:00,
2013-01-07 14:53:00,16.0,10.7,30.21,West,270,0.0,-999.0,79,-99.99,,,0.00,Acu-Link.com,2013-01-07 19:53:00,
2013-01-07 15:08:00,17.4,10.9,30.22,WSW,247,0.0,-999.0,75,-99.99,,,0.00,Acu-Link.com,2013-01-07 20:08:00,
2013-01-07 15:28:00,14.9,10.4,30.22,South,180,0.0,-999.0,82,-99.99,,,0.00,Acu-Link.com,2013-01-07 20:28:00,
2013-01-07 16:06:00,12.6,8.7,30.22,South,180,0.0,-999.0,84,-99.99,,,0.00,Acu-Link.com,2013-01-07 21:06:00,
2013-01-07 16:36:00,9.1,6.8,30.22,NE,45,0.0,-999.0,90,-99.99,,,0.00,Acu-Link.com,2013-01-07 21:36:00,
2013-01-07 16:57:00,7.9,5.8,30.23,NE,45,0.0,-999.0,91,-99.99,,,0.00,Acu-Link.com,2013-01-07 21:57:00,
2013-01-07 17:13:00,5.2,3.6,30.22,East,90,0.0,-999.0,93,-99.99,,,0.00,Acu-Link.com,2013-01-07 22:13:00,
2013-01-07 17:28:00,4.1,2.3,30.22,ENE,67,0.0,-999.0,92,-99.99,,,0.00,Acu-Link.com,2013-01-07 22:28:00,
2013-01-07 17:43:00,2.8,1.5,30.23,ENE,67,0.0,-999.0,94,-99.99,,,0.00,Acu-Link.com,2013-01-07 22:43:00,
2013-01-07 17:59:00,1.8,0.3,30.23,East,90,0.0,-999.0,93,-99.99,,,0.00,Acu-Link.com,2013-01-07 22:59:00,
2013-01-07 18:14:00,0.7,-0.6,30.22,SSW,202,0.0,-999.0,94,-99.99,,,0.00,Acu-Link.com,2013-01-07 23:14:00,
2013-01-07 18:29:00,0.0,-1.5,30.22,NNE,22,0.0,-999.0,93,-99.99,,,0.00,Acu-Link.com,2013-01-07 23:29:00,
2013-01-07 18:44:00,-1.1,-2.6,30.23,SSE,157,0.0,-999.0,93,-99.99,,,0.00,Acu-Link.com,2013-01-07 23:44:00,
2013-01-07 18:59:00,-1.8,-3.1,30.22,East,90,0.0,-999.0,94,-99.99,,,0.00,Acu-Link.com,2013-01-07 23:59:00,
2013-01-07 19:15:00,-2.4,-3.5,30.21,SSW,202,0.0,-999.0,95,-99.99,,,0.00,Acu-Link.com,2013-01-08 00:15:00,
2013-01-07 19:30:00,-2.7,-3.8,30.21,NNE,22,0.0,-999.0,95,-99.99,,,0.00,Acu-Link.com,2013-01-08 00:30:00,
2013-01-07 19:45:00,-3.5,-4.8,30.19,ESE,112,0.0,-999.0,94,-99.99,,,0.00,Acu-Link.com,2013-01-08 00:45:00,
2013-01-07 20:00:00,-3.8,-4.9,30.19,NW,315,0.0,-999.0,95,-99.99,,,0.00,Acu-Link.com,2013-01-08 01:00:00,
2013-01-07 20:16:00,-4.7,-6.2,30.18,SE,135,0.0,-999.0,93,-99.99,,,0.00,Acu-Link.com,2013-01-08 01:16:00,
2013-01-07 20:31:00,-5.4,-6.9,30.18,NE,45,0.0,-999.0,93,-99.99,,,0.00,Acu-Link.com,2013-01-08 01:31:00,
2013-01-07 20:46:00,-5.6,-7.3,30.16,NE,45,0.0,-999.0,92,-99.99,,,0.00,Acu-Link.com,2013-01-08 01:46:00,
2013-01-07 21:01:00,-6.0,-7.7,30.17,South,180,0.0,-999.0,92,-99.99,,,0.00,Acu-Link.com,2013-01-08 02:01:00,
2013-01-07 21:16:00,-6.0,-7.5,30.17,East,90,0.0,-999.0,93,-99.99,,,0.00,Acu-Link.com,2013-01-08 02:16:00,
2013-01-07 21:32:00,-5.8,-7.1,30.15,WSW,247,0.0,-999.0,94,-99.99,,,0.00,Acu-Link.com,2013-01-08 02:32:00,
2013-01-07 21:47:00,-6.0,-7.5,30.15,ESE,112,0.0,-999.0,93,-99.99,,,0.00,Acu-Link.com,2013-01-08 02:47:00,
2013-01-07 22:02:00,-6.3,-7.8,30.15,NNE,22,0.0,-999.0,93,-99.99,,,0.00,Acu-Link.com,2013-01-08 03:02:00,
2013-01-07 22:17:00,-6.2,-7.5,30.16,North,0,0.0,-999.0,94,-99.99,,,0.00,Acu-Link.com,2013-01-08 03:17:00,
2013-01-07 22:32:00,-6.7,-8.2,30.15,West,270,0.0,-999.0,93,-99.99,,,0.00,Acu-Link.com,2013-01-08 03:32:00,
2013-01-07 22:48:00,-6.7,-8.2,30.14,South,180,0.0,-999.0,93,-99.99,,,0.00,Acu-Link.com,2013-01-08 03:48:00,
2013-01-07 23:03:00,-7.2,-8.9,30.14,NE,45,0.0,-999.0,92,-99.99,,,0.00,Acu-Link.com,2013-01-08 04:03:00,
2013-01-07 23:18:00,-7.2,-8.7,30.13,West,270,0.0,-999.0,93,-99.99,,,0.00,Acu-Link.com,2013-01-08 04:18:00,
2013-01-07 23:33:00,-6.7,-8.2,30.12,SSE,157,0.0,-999.0,93,-99.99,,,0.00,Acu-Link.com,2013-01-08 04:33:00,
2013-01-07 23:48:00,-6.9,-8.4,30.11,SE,135,0.0,-999.0,93,-99.99,,,0.00,Acu-Link.com,2013-01-08 04:48:00,